Year,Month,Day,Hour,Minute,Value (Times are PST for temperature in C)
2015,08,03,00,00,19.60
2015,08,03,00,01,19.60
2015,08,03,00,02,19.60
2015,08,03,00,03,19.60
2015,08,03,00,04,19.60
2015,08,03,00,05,19.60
2015,08,03,00,06,19.60
2015,08,03,00,07,19.60
2015,08,03,00,08,19.60
2015,08,03,00,09,19.60
2015,08,03,00,10,19.50
2015,08,03,00,11,19.50
2015,08,03,00,12,19.50
2015,08,03,00,13,19.40
2015,08,03,00,14,19.40
2015,08,03,00,15,19.40
2015,08,03,00,16,19.30
2015,08,03,00,17,19.30
2015,08,03,00,18,19.20
2015,08,03,00,19,19.20
2015,08,03,00,20,19.20
2015,08,03,00,21,19.10
2015,08,03,00,22,19.10
2015,08,03,00,23,19.10
2015,08,03,00,24,19.10
2015,08,03,00,25,19.10
2015,08,03,00,26,19.00
2015,08,03,00,27,19.00
2015,08,03,00,28,19.00
2015,08,03,00,29,19.00
2015,08,03,00,30,18.90
2015,08,03,00,31,18.90
2015,08,03,00,32,18.90
2015,08,03,00,33,18.90
2015,08,03,00,34,18.90
2015,08,03,00,35,18.90
2015,08,03,00,36,18.80
2015,08,03,00,37,18.80
2015,08,03,00,38,18.80
2015,08,03,00,39,18.80
2015,08,03,00,40,18.80
2015,08,03,00,41,18.80
2015,08,03,00,42,18.70
2015,08,03,00,43,18.70
2015,08,03,00,44,18.70
2015,08,03,00,45,18.70
2015,08,03,00,46,18.60
2015,08,03,00,47,18.60
2015,08,03,00,48,18.60
2015,08,03,00,49,18.60
2015,08,03,00,50,18.60
2015,08,03,00,51,18.50
2015,08,03,00,52,18.50
2015,08,03,00,53,18.50
2015,08,03,00,54,18.50
2015,08,03,00,55,18.40
2015,08,03,00,56,18.40
2015,08,03,00,57,18.40
2015,08,03,00,58,18.40
2015,08,03,00,59,18.40
2015,08,03,01,00,18.30
2015,08,03,01,01,18.30
2015,08,03,01,02,18.30
2015,08,03,01,03,18.30
2015,08,03,01,04,18.20
2015,08,03,01,05,18.20
2015,08,03,01,06,18.20
2015,08,03,01,07,18.20
2015,08,03,01,08,18.10
2015,08,03,01,09,18.10
2015,08,03,01,10,18.10
2015,08,03,01,11,18.10
2015,08,03,01,12,18.00
2015,08,03,01,13,18.00
2015,08,03,01,14,18.00
2015,08,03,01,15,18.00
2015,08,03,01,16,17.90
2015,08,03,01,17,17.90
2015,08,03,01,18,17.90
2015,08,03,01,19,17.90
2015,08,03,01,20,17.90
2015,08,03,01,21,17.90
2015,08,03,01,22,17.80
2015,08,03,01,23,17.80
2015,08,03,01,24,17.80
2015,08,03,01,25,17.80
2015,08,03,01,26,17.80
2015,08,03,01,27,17.80
2015,08,03,01,28,17.70
2015,08,03,01,29,17.70
2015,08,03,01,30,17.70
2015,08,03,01,31,17.70
2015,08,03,01,32,17.70
2015,08,03,01,33,17.60
2015,08,03,01,34,17.60
2015,08,03,01,35,17.60
2015,08,03,01,36,17.60
2015,08,03,01,37,17.60
2015,08,03,01,38,17.50
2015,08,03,01,39,17.50
2015,08,03,01,40,17.40
2015,08,03,01,41,17.40
2015,08,03,01,42,17.40
2015,08,03,01,43,17.40
2015,08,03,01,44,17.30
2015,08,03,01,45,17.30
2015,08,03,01,46,17.30
2015,08,03,01,47,17.30
2015,08,03,01,48,17.30
2015,08,03,01,49,17.30
2015,08,03,01,50,17.20
2015,08,03,01,51,17.20
2015,08,03,01,52,17.20
2015,08,03,01,53,17.20
2015,08,03,01,54,17.10
2015,08,03,01,55,17.10
2015,08,03,01,56,17.10
2015,08,03,01,57,17.10
2015,08,03,01,58,17.10
2015,08,03,01,59,17.00
2015,08,03,02,00,17.00
2015,08,03,02,01,17.00
2015,08,03,02,02,16.90
2015,08,03,02,03,16.90
2015,08,03,02,04,16.90
2015,08,03,02,05,16.90
2015,08,03,02,06,16.90
2015,08,03,02,07,16.90
2015,08,03,02,08,16.90
2015,08,03,02,09,16.90
2015,08,03,02,10,16.90
2015,08,03,02,11,16.80
2015,08,03,02,12,16.90
2015,08,03,02,13,16.80
2015,08,03,02,14,16.80
2015,08,03,02,15,16.80
2015,08,03,02,16,16.80
2015,08,03,02,17,16.80
2015,08,03,02,18,16.80
2015,08,03,02,19,16.80
2015,08,03,02,20,16.80
2015,08,03,02,21,16.80
2015,08,03,02,22,16.70
2015,08,03,02,23,16.70
2015,08,03,02,24,16.70
2015,08,03,02,25,16.70
2015,08,03,02,26,16.70
2015,08,03,02,27,16.70
2015,08,03,02,28,16.60
2015,08,03,02,29,16.60
2015,08,03,02,30,16.60
2015,08,03,02,31,16.60
2015,08,03,02,32,16.60
2015,08,03,02,33,16.60
2015,08,03,02,34,16.60
2015,08,03,02,35,16.60
2015,08,03,02,36,16.60
2015,08,03,02,37,16.70
2015,08,03,02,38,16.70
2015,08,03,02,39,16.60
2015,08,03,02,40,16.70
2015,08,03,02,41,16.70
2015,08,03,02,42,16.70
2015,08,03,02,43,16.60
2015,08,03,02,44,16.60
2015,08,03,02,45,16.60
2015,08,03,02,46,16.60
2015,08,03,02,47,16.60
2015,08,03,02,48,16.60
2015,08,03,02,49,16.50
2015,08,03,02,50,16.50
2015,08,03,02,51,16.50
2015,08,03,02,52,16.40
2015,08,03,02,53,16.40
2015,08,03,02,54,16.40
2015,08,03,02,55,16.40
2015,08,03,02,56,16.40
2015,08,03,02,57,16.30
2015,08,03,02,58,16.30
2015,08,03,02,59,16.30
2015,08,03,03,00,16.30
2015,08,03,03,01,16.30
2015,08,03,03,02,16.20
2015,08,03,03,03,16.20
2015,08,03,03,04,16.20
2015,08,03,03,05,16.20
2015,08,03,03,06,16.20
2015,08,03,03,07,16.20
2015,08,03,03,08,16.10
2015,08,03,03,09,16.10
2015,08,03,03,10,16.10
2015,08,03,03,11,16.10
2015,08,03,03,12,16.10
2015,08,03,03,13,16.10
2015,08,03,03,14,16.10
2015,08,03,03,15,16.10
2015,08,03,03,16,16.10
2015,08,03,03,17,16.10
2015,08,03,03,18,16.10
2015,08,03,03,19,16.10
2015,08,03,03,20,16.10
2015,08,03,03,21,16.10
2015,08,03,03,22,16.00
2015,08,03,03,23,16.00
2015,08,03,03,24,16.00
2015,08,03,03,25,16.00
2015,08,03,03,26,16.00
2015,08,03,03,27,16.00
2015,08,03,03,28,16.00
2015,08,03,03,29,15.90
2015,08,03,03,30,15.90
2015,08,03,03,31,15.90
2015,08,03,03,32,15.90
2015,08,03,03,33,15.90
2015,08,03,03,34,15.90
2015,08,03,03,35,15.90
2015,08,03,03,36,15.90
2015,08,03,03,37,15.90
2015,08,03,03,38,15.90
2015,08,03,03,39,15.90
2015,08,03,03,40,15.90
2015,08,03,03,41,15.80
2015,08,03,03,42,15.80
2015,08,03,03,43,15.80
2015,08,03,03,44,15.80
2015,08,03,03,45,15.80
2015,08,03,03,46,15.70
2015,08,03,03,47,15.70
2015,08,03,03,48,15.70
2015,08,03,03,49,15.70
2015,08,03,03,50,15.70
2015,08,03,03,51,15.70
2015,08,03,03,52,15.70
2015,08,03,03,53,15.70
2015,08,03,03,54,15.60
2015,08,03,03,55,15.60
2015,08,03,03,56,15.60
2015,08,03,03,57,15.60
2015,08,03,03,58,15.60
2015,08,03,03,59,15.60
2015,08,03,04,00,15.60
2015,08,03,04,01,15.60
2015,08,03,04,02,15.60
2015,08,03,04,03,15.60
2015,08,03,04,04,15.70
2015,08,03,04,05,15.70
2015,08,03,04,06,15.70
2015,08,03,04,07,15.70
2015,08,03,04,08,15.70
2015,08,03,04,09,15.70
2015,08,03,04,10,15.70
2015,08,03,04,11,15.70
2015,08,03,04,12,15.60
2015,08,03,04,13,15.60
2015,08,03,04,14,15.60
2015,08,03,04,15,15.60
2015,08,03,04,16,15.60
2015,08,03,04,17,15.50
2015,08,03,04,18,15.50
2015,08,03,04,19,15.40
2015,08,03,04,20,15.40
2015,08,03,04,21,15.40
2015,08,03,04,22,15.40
2015,08,03,04,23,15.30
2015,08,03,04,24,15.30
2015,08,03,04,25,15.30
2015,08,03,04,26,15.30
2015,08,03,04,27,15.30
2015,08,03,04,28,15.30
2015,08,03,04,29,15.30
2015,08,03,04,30,15.30
2015,08,03,04,31,15.30
2015,08,03,04,32,15.30
2015,08,03,04,33,15.30
2015,08,03,04,34,15.30
2015,08,03,04,35,15.30
2015,08,03,04,36,15.30
2015,08,03,04,37,15.30
2015,08,03,04,38,15.30
2015,08,03,04,39,15.30
2015,08,03,04,40,15.30
2015,08,03,04,41,15.20
2015,08,03,04,42,15.20
2015,08,03,04,43,15.20
2015,08,03,04,44,15.20
2015,08,03,04,45,15.20
2015,08,03,04,46,15.20
2015,08,03,04,47,15.20
2015,08,03,04,48,15.10
2015,08,03,04,49,15.10
2015,08,03,04,50,15.10
2015,08,03,04,51,15.10
2015,08,03,04,52,15.10
2015,08,03,04,53,15.00
2015,08,03,04,54,15.00
2015,08,03,04,55,15.00
2015,08,03,04,56,15.00
2015,08,03,04,57,15.00
2015,08,03,04,58,15.00
2015,08,03,04,59,14.90
2015,08,03,05,00,14.90
2015,08,03,05,01,15.00
2015,08,03,05,02,15.00
2015,08,03,05,03,15.00
2015,08,03,05,04,14.90
2015,08,03,05,05,14.90
2015,08,03,05,06,14.90
2015,08,03,05,07,14.90
2015,08,03,05,08,14.90
2015,08,03,05,09,15.00
2015,08,03,05,10,15.00
2015,08,03,05,11,15.00
2015,08,03,05,12,15.00
2015,08,03,05,13,15.00
2015,08,03,05,14,15.00
2015,08,03,05,15,15.00
2015,08,03,05,16,15.00
2015,08,03,05,17,14.90
2015,08,03,05,18,14.90
2015,08,03,05,19,14.90
2015,08,03,05,20,14.90
2015,08,03,05,21,14.90
2015,08,03,05,22,14.90
2015,08,03,05,23,14.90
2015,08,03,05,24,14.90
2015,08,03,05,25,14.90
2015,08,03,05,26,14.90
2015,08,03,05,27,14.90
2015,08,03,05,28,14.90
2015,08,03,05,29,14.90
2015,08,03,05,30,14.80
2015,08,03,05,31,14.80
2015,08,03,05,32,14.80
2015,08,03,05,33,14.80
2015,08,03,05,34,14.90
2015,08,03,05,35,14.90
2015,08,03,05,36,14.90
2015,08,03,05,37,14.90
2015,08,03,05,38,15.00
2015,08,03,05,39,15.00
2015,08,03,05,40,15.00
2015,08,03,05,41,15.00
2015,08,03,05,42,14.90
2015,08,03,05,43,14.90
2015,08,03,05,44,14.90
2015,08,03,05,45,14.90
2015,08,03,05,46,14.90
2015,08,03,05,47,14.80
2015,08,03,05,48,14.80
2015,08,03,05,49,14.80
2015,08,03,05,50,14.80
2015,08,03,05,51,14.80
2015,08,03,05,52,14.80
2015,08,03,05,53,14.80
2015,08,03,05,54,14.80
2015,08,03,05,55,14.80
2015,08,03,05,56,14.80
2015,08,03,05,57,14.80
2015,08,03,05,58,14.80
2015,08,03,05,59,14.80
2015,08,03,06,00,14.80
2015,08,03,06,01,14.80
2015,08,03,06,02,14.80
2015,08,03,06,03,14.80
2015,08,03,06,04,14.80
2015,08,03,06,05,14.80
2015,08,03,06,06,14.80
2015,08,03,06,07,14.80
2015,08,03,06,08,14.80
2015,08,03,06,09,14.80
2015,08,03,06,10,14.80
2015,08,03,06,11,14.80
2015,08,03,06,12,14.80
2015,08,03,06,13,14.80
2015,08,03,06,14,14.80
2015,08,03,06,15,14.80
2015,08,03,06,16,14.80
2015,08,03,06,17,14.80
2015,08,03,06,18,14.80
2015,08,03,06,19,14.80
2015,08,03,06,20,14.90
2015,08,03,06,21,14.90
2015,08,03,06,22,14.90
2015,08,03,06,23,14.90
2015,08,03,06,24,14.80
2015,08,03,06,25,14.80
2015,08,03,06,26,14.80
2015,08,03,06,27,14.80
2015,08,03,06,28,14.80
2015,08,03,06,29,14.80
2015,08,03,06,30,14.80
2015,08,03,06,31,14.80
2015,08,03,06,32,14.80
2015,08,03,06,33,14.80
2015,08,03,06,34,14.80
2015,08,03,06,35,14.80
2015,08,03,06,36,14.80
2015,08,03,06,37,14.80
2015,08,03,06,38,14.80
2015,08,03,06,39,14.80
2015,08,03,06,40,14.80
2015,08,03,06,41,14.90
2015,08,03,06,42,14.90
2015,08,03,06,43,14.90
2015,08,03,06,44,14.80
2015,08,03,06,45,14.90
2015,08,03,06,46,14.90
2015,08,03,06,47,14.90
2015,08,03,06,48,14.90
2015,08,03,06,49,14.80
2015,08,03,06,50,14.80
2015,08,03,06,51,14.80
2015,08,03,06,52,14.80
2015,08,03,06,53,14.90
2015,08,03,06,54,14.80
2015,08,03,06,55,14.80
2015,08,03,06,56,14.80
2015,08,03,06,57,14.80
2015,08,03,06,58,14.80
2015,08,03,06,59,14.90
2015,08,03,07,00,14.90
2015,08,03,07,01,14.90
2015,08,03,07,02,15.00
2015,08,03,07,03,15.10
2015,08,03,07,04,15.10
2015,08,03,07,05,15.10
2015,08,03,07,06,15.20
2015,08,03,07,07,15.20
2015,08,03,07,08,15.30
2015,08,03,07,09,15.30
2015,08,03,07,10,15.30
2015,08,03,07,11,15.40
2015,08,03,07,12,15.40
2015,08,03,07,13,15.50
2015,08,03,07,14,15.60
2015,08,03,07,15,15.60
2015,08,03,07,16,15.60
2015,08,03,07,17,15.70
2015,08,03,07,18,15.70
2015,08,03,07,19,15.80
2015,08,03,07,20,15.80
2015,08,03,07,21,15.90
2015,08,03,07,22,16.00
2015,08,03,07,23,16.10
2015,08,03,07,24,16.10
2015,08,03,07,25,16.10
2015,08,03,07,26,16.10
2015,08,03,07,27,16.10
2015,08,03,07,28,16.10
2015,08,03,07,29,16.10
2015,08,03,07,30,16.10
2015,08,03,07,31,16.10
2015,08,03,07,32,16.10
2015,08,03,07,33,16.10
2015,08,03,07,34,16.10
2015,08,03,07,35,16.10
2015,08,03,07,36,16.20
2015,08,03,07,37,16.20
2015,08,03,07,38,16.20
2015,08,03,07,39,16.20
2015,08,03,07,40,16.30
2015,08,03,07,41,16.30
2015,08,03,07,42,16.30
2015,08,03,07,43,16.30
2015,08,03,07,44,16.30
2015,08,03,07,45,16.30
2015,08,03,07,46,16.40
2015,08,03,07,47,16.40
2015,08,03,07,48,16.40
2015,08,03,07,49,16.40
2015,08,03,07,50,16.40
2015,08,03,07,51,16.40
2015,08,03,07,52,16.40
2015,08,03,07,53,16.40
2015,08,03,07,54,16.50
2015,08,03,07,55,16.40
2015,08,03,07,56,16.40
2015,08,03,07,57,16.40
2015,08,03,07,58,16.40
2015,08,03,07,59,16.40
2015,08,03,08,00,16.50
2015,08,03,08,01,16.50
2015,08,03,08,02,16.50
2015,08,03,08,03,16.60
2015,08,03,08,04,16.60
2015,08,03,08,05,16.60
2015,08,03,08,06,16.60
2015,08,03,08,07,16.70
2015,08,03,08,08,16.70
2015,08,03,08,09,16.70
2015,08,03,08,10,16.80
2015,08,03,08,11,16.80
2015,08,03,08,12,16.90
2015,08,03,08,13,16.90
2015,08,03,08,14,17.00
2015,08,03,08,15,17.10
2015,08,03,08,16,17.10
2015,08,03,08,17,17.10
2015,08,03,08,18,17.20
2015,08,03,08,19,17.20
2015,08,03,08,20,17.30
2015,08,03,08,21,17.30
2015,08,03,08,22,17.40
2015,08,03,08,23,17.50
2015,08,03,08,24,17.60
2015,08,03,08,25,17.60
2015,08,03,08,26,17.70
2015,08,03,08,27,17.70
2015,08,03,08,28,17.70
2015,08,03,08,29,17.80
2015,08,03,08,30,17.80
2015,08,03,08,31,17.80
2015,08,03,08,32,17.90
2015,08,03,08,33,17.90
2015,08,03,08,34,18.00
2015,08,03,08,35,18.10
2015,08,03,08,36,18.20
2015,08,03,08,37,18.30
2015,08,03,08,38,18.30
2015,08,03,08,39,18.40
2015,08,03,08,40,18.40
2015,08,03,08,41,18.40
2015,08,03,08,42,18.50
2015,08,03,08,43,18.60
2015,08,03,08,44,18.70
2015,08,03,08,45,18.70
2015,08,03,08,46,18.70
2015,08,03,08,47,18.80
2015,08,03,08,48,18.80
2015,08,03,08,49,18.80
2015,08,03,08,50,18.80
2015,08,03,08,51,18.80
2015,08,03,08,52,18.80
2015,08,03,08,53,18.80
2015,08,03,08,54,18.80
2015,08,03,08,55,18.90
2015,08,03,08,56,18.90
2015,08,03,08,57,18.90
2015,08,03,08,58,18.90
2015,08,03,08,59,18.90
2015,08,03,09,00,19.00
2015,08,03,09,01,19.10
2015,08,03,09,02,19.10
2015,08,03,09,03,19.20
2015,08,03,09,04,19.30
2015,08,03,09,05,19.30
2015,08,03,09,06,19.40
2015,08,03,09,07,19.40
2015,08,03,09,08,19.50
2015,08,03,09,09,19.60
2015,08,03,09,10,19.60
2015,08,03,09,11,19.70
2015,08,03,09,12,19.80
2015,08,03,09,13,19.90
2015,08,03,09,14,19.90
2015,08,03,09,15,20.00
2015,08,03,09,16,20.10
2015,08,03,09,17,20.20
2015,08,03,09,18,20.30
2015,08,03,09,19,20.40
2015,08,03,09,20,20.40
2015,08,03,09,21,20.40
2015,08,03,09,22,20.50
2015,08,03,09,23,20.60
2015,08,03,09,24,20.60
2015,08,03,09,25,20.60
2015,08,03,09,26,20.60
2015,08,03,09,27,20.70
2015,08,03,09,28,20.70
2015,08,03,09,29,20.70
2015,08,03,09,30,20.80
2015,08,03,09,31,20.80
2015,08,03,09,32,20.90
2015,08,03,09,33,21.00
2015,08,03,09,34,21.10
2015,08,03,09,35,21.20
2015,08,03,09,36,21.20
2015,08,03,09,37,21.30
2015,08,03,09,38,21.30
2015,08,03,09,39,21.40
2015,08,03,09,40,21.40
2015,08,03,09,41,21.40
2015,08,03,09,42,21.40
2015,08,03,09,43,21.40
2015,08,03,09,44,21.40
2015,08,03,09,45,21.40
2015,08,03,09,46,21.40
2015,08,03,09,47,21.40
2015,08,03,09,48,21.40
2015,08,03,09,49,21.60
2015,08,03,09,50,21.70
2015,08,03,09,51,21.80
2015,08,03,09,52,21.90
2015,08,03,09,53,22.00
2015,08,03,09,54,22.10
2015,08,03,09,55,22.20
2015,08,03,09,56,22.30
2015,08,03,09,57,22.30
2015,08,03,09,58,22.40
2015,08,03,09,59,22.40
2015,08,03,10,00,22.60
2015,08,03,10,01,22.70
2015,08,03,10,02,22.70
2015,08,03,10,03,22.70
2015,08,03,10,04,22.80
2015,08,03,10,05,22.70
2015,08,03,10,06,22.80
2015,08,03,10,07,22.80
2015,08,03,10,08,22.90
2015,08,03,10,09,22.90
2015,08,03,10,10,23.10
2015,08,03,10,11,23.10
2015,08,03,10,12,23.20
2015,08,03,10,13,23.20
2015,08,03,10,14,23.30
2015,08,03,10,15,23.30
2015,08,03,10,16,23.40
2015,08,03,10,17,23.40
2015,08,03,10,18,23.50
2015,08,03,10,19,23.50
2015,08,03,10,20,23.60
2015,08,03,10,21,23.60
2015,08,03,10,22,23.60
2015,08,03,10,23,23.60
2015,08,03,10,24,23.60
2015,08,03,10,25,23.70
2015,08,03,10,26,23.70
2015,08,03,10,27,23.70
2015,08,03,10,28,23.80
2015,08,03,10,29,23.80
2015,08,03,10,30,23.90
2015,08,03,10,31,23.90
2015,08,03,10,32,23.90
2015,08,03,10,33,23.90
2015,08,03,10,34,23.90
2015,08,03,10,35,23.90
2015,08,03,10,36,23.90
2015,08,03,10,37,23.90
2015,08,03,10,38,23.90
2015,08,03,10,39,23.90
2015,08,03,10,40,23.90
2015,08,03,10,41,23.90
2015,08,03,10,42,23.90
2015,08,03,10,43,24.00
2015,08,03,10,44,23.90
2015,08,03,10,45,23.80
2015,08,03,10,46,23.70
2015,08,03,10,47,23.70
2015,08,03,10,48,23.80
2015,08,03,10,49,23.80
2015,08,03,10,50,23.90
2015,08,03,10,52,23.70
2015,08,03,10,53,23.50
2015,08,03,10,54,23.40
2015,08,03,10,55,23.30
2015,08,03,10,56,23.20
2015,08,03,10,57,23.20
2015,08,03,10,58,23.10
2015,08,03,10,59,23.20
2015,08,03,11,00,23.20
2015,08,03,11,01,23.10
2015,08,03,11,02,23.10
2015,08,03,11,03,23.10
2015,08,03,11,04,23.00
2015,08,03,11,05,22.90
2015,08,03,11,06,22.90
2015,08,03,11,07,22.90
2015,08,03,11,08,22.90
2015,08,03,11,09,22.90
2015,08,03,11,10,22.80
2015,08,03,11,11,22.80
2015,08,03,11,12,22.80
2015,08,03,11,13,22.80
2015,08,03,11,14,22.70
2015,08,03,11,15,22.70
2015,08,03,11,16,22.70
2015,08,03,11,17,22.70
2015,08,03,11,18,22.70
2015,08,03,11,19,22.70
2015,08,03,11,20,22.60
2015,08,03,11,21,22.60
2015,08,03,11,22,22.60
2015,08,03,11,23,22.60
2015,08,03,11,24,22.60
2015,08,03,11,25,22.60
2015,08,03,11,26,22.60
2015,08,03,11,27,22.60
2015,08,03,11,28,22.50
2015,08,03,11,29,22.40
2015,08,03,11,30,22.40
2015,08,03,11,31,22.40
2015,08,03,11,32,22.40
2015,08,03,11,33,22.40
2015,08,03,11,34,22.40
2015,08,03,11,35,22.30
2015,08,03,11,36,22.30
2015,08,03,11,37,22.30
2015,08,03,11,38,22.30
2015,08,03,11,39,22.30
2015,08,03,11,40,22.30
2015,08,03,11,41,22.30
2015,08,03,11,42,22.30
2015,08,03,11,43,22.40
2015,08,03,11,44,22.40
2015,08,03,11,45,22.50
2015,08,03,11,46,22.60
2015,08,03,11,47,22.60
2015,08,03,11,48,22.60
2015,08,03,11,49,22.60
2015,08,03,11,50,22.60
2015,08,03,11,51,22.70
2015,08,03,11,52,22.70
2015,08,03,11,53,22.70
2015,08,03,11,55,22.80
2015,08,03,11,56,22.90
2015,08,03,11,57,22.90
2015,08,03,11,58,23.00
2015,08,03,11,59,23.10
2015,08,03,12,00,23.10
2015,08,03,12,01,23.10
2015,08,03,12,02,23.10
2015,08,03,12,03,23.10
2015,08,03,12,04,23.20
2015,08,03,12,05,23.20
2015,08,03,12,06,23.20
2015,08,03,12,07,23.30
2015,08,03,12,08,23.30
2015,08,03,12,09,23.30
2015,08,03,12,10,23.40
2015,08,03,12,11,23.40
2015,08,03,12,12,23.50
2015,08,03,12,13,23.60
2015,08,03,12,14,23.70
2015,08,03,12,15,23.70
2015,08,03,12,16,23.70
2015,08,03,12,17,23.70
2015,08,03,12,18,23.70
2015,08,03,12,19,23.80
2015,08,03,12,20,23.80
2015,08,03,12,21,23.80
2015,08,03,12,22,23.80
2015,08,03,12,23,23.70
2015,08,03,12,24,23.70
2015,08,03,12,25,23.70
2015,08,03,12,26,23.70
2015,08,03,12,27,23.70
2015,08,03,12,28,23.70
2015,08,03,12,29,23.70
2015,08,03,12,30,23.70
2015,08,03,12,31,23.70
2015,08,03,12,32,23.70
2015,08,03,12,33,23.70
2015,08,03,12,34,23.70
2015,08,03,12,35,23.70
2015,08,03,12,36,23.60
2015,08,03,12,37,23.70
2015,08,03,12,38,23.70
2015,08,03,12,39,23.70
2015,08,03,12,40,23.70
2015,08,03,12,41,23.70
2015,08,03,12,42,23.80
2015,08,03,12,43,23.80
2015,08,03,12,44,23.80
2015,08,03,12,45,23.80
2015,08,03,12,46,23.80
2015,08,03,12,47,23.90
2015,08,03,12,48,24.10
2015,08,03,12,49,24.20
2015,08,03,12,50,24.20
2015,08,03,12,51,24.30
2015,08,03,12,52,24.30
2015,08,03,12,53,24.40
2015,08,03,12,54,24.40
2015,08,03,12,55,24.60
2015,08,03,12,56,24.60
2015,08,03,12,57,24.60
2015,08,03,12,58,24.70
2015,08,03,12,59,24.60
2015,08,03,13,00,24.60
2015,08,03,13,01,24.40
2015,08,03,13,02,24.40
2015,08,03,13,03,24.30
2015,08,03,13,04,24.20
2015,08,03,13,05,24.20
2015,08,03,13,06,24.10
2015,08,03,13,07,24.00
2015,08,03,13,08,24.00
2015,08,03,13,09,23.90
2015,08,03,13,10,23.90
2015,08,03,13,11,23.80
2015,08,03,13,12,23.80
2015,08,03,13,13,23.80
2015,08,03,13,14,23.80
2015,08,03,13,15,23.90
2015,08,03,13,16,23.90
2015,08,03,13,17,24.00
2015,08,03,13,18,24.10
2015,08,03,13,19,24.10
2015,08,03,13,20,24.10
2015,08,03,13,21,24.10
2015,08,03,13,22,24.00
2015,08,03,13,23,23.90
2015,08,03,13,24,23.90
2015,08,03,13,25,23.80
2015,08,03,13,26,23.70
2015,08,03,13,27,23.60
2015,08,03,13,28,23.50
2015,08,03,13,29,23.40
2015,08,03,13,30,23.40
2015,08,03,13,31,23.50
2015,08,03,13,32,23.60
2015,08,03,13,33,23.60
2015,08,03,13,34,23.60
2015,08,03,13,35,23.60
2015,08,03,13,36,23.70
2015,08,03,13,37,23.70
2015,08,03,13,38,23.70
2015,08,03,13,39,23.70
2015,08,03,13,40,23.70
2015,08,03,13,41,23.70
2015,08,03,13,42,23.80
2015,08,03,13,43,23.80
2015,08,03,13,44,23.90
2015,08,03,13,45,23.90
2015,08,03,13,46,24.10
2015,08,03,13,47,24.10
2015,08,03,13,48,24.20
2015,08,03,13,49,24.20
2015,08,03,13,50,24.20
2015,08,03,13,51,24.30
2015,08,03,13,52,24.30
2015,08,03,13,53,24.30
2015,08,03,13,54,24.40
2015,08,03,13,55,24.40
2015,08,03,13,56,24.40
2015,08,03,13,57,24.50
2015,08,03,13,58,24.60
2015,08,03,13,59,24.70
2015,08,03,14,00,24.70
2015,08,03,14,01,24.70
2015,08,03,14,02,24.70
2015,08,03,14,03,24.70
2015,08,03,14,04,24.80
2015,08,03,14,05,24.90
2015,08,03,14,06,25.10
2015,08,03,14,07,25.20
2015,08,03,14,08,25.20
2015,08,03,14,09,25.10
2015,08,03,14,10,24.80
2015,08,03,14,11,24.70
2015,08,03,14,13,24.70
2015,08,03,14,14,24.70
2015,08,03,14,15,24.80
2015,08,03,14,16,24.80
2015,08,03,14,17,24.80
2015,08,03,14,18,24.90
2015,08,03,14,19,25.00
2015,08,03,14,20,25.20
2015,08,03,14,21,25.30
2015,08,03,14,22,25.30
2015,08,03,14,23,25.30
2015,08,03,14,24,25.20
2015,08,03,14,25,25.20
2015,08,03,14,26,25.10
2015,08,03,14,27,25.00
2015,08,03,14,28,24.90
2015,08,03,14,29,24.80
2015,08,03,14,30,24.80
2015,08,03,14,31,24.80
2015,08,03,14,32,24.80
2015,08,03,14,33,24.90
2015,08,03,14,34,24.90
2015,08,03,14,35,24.90
2015,08,03,14,36,24.90
2015,08,03,14,37,24.90
2015,08,03,14,38,24.90
2015,08,03,14,39,24.90
2015,08,03,14,40,24.90
2015,08,03,14,41,24.90
2015,08,03,14,42,24.90
2015,08,03,14,43,24.90
2015,08,03,14,44,24.90
2015,08,03,14,45,25.00
2015,08,03,14,46,25.00
2015,08,03,14,47,25.00
2015,08,03,14,48,24.80
2015,08,03,14,49,24.80
2015,08,03,14,50,24.80
2015,08,03,14,51,24.90
2015,08,03,14,52,25.00
2015,08,03,14,53,25.10
2015,08,03,14,54,25.20
2015,08,03,14,55,25.20
2015,08,03,14,56,25.20
2015,08,03,14,57,25.30
2015,08,03,14,58,25.30
2015,08,03,14,59,25.30
2015,08,03,15,00,25.30
2015,08,03,15,01,25.30
2015,08,03,15,02,25.40
2015,08,03,15,03,25.40
2015,08,03,15,04,25.50
2015,08,03,15,05,25.40
2015,08,03,15,06,25.50
2015,08,03,15,07,25.50
2015,08,03,15,08,25.50
2015,08,03,15,09,25.50
2015,08,03,15,10,25.60
2015,08,03,15,11,25.60
2015,08,03,15,12,25.60
2015,08,03,15,13,25.50
2015,08,03,15,14,25.50
2015,08,03,15,15,25.40
2015,08,03,15,16,25.40
2015,08,03,15,17,25.40
2015,08,03,15,18,25.30
2015,08,03,15,19,25.30
2015,08,03,15,20,25.30
2015,08,03,15,21,25.30
2015,08,03,15,22,25.30
2015,08,03,15,23,25.30
2015,08,03,15,24,25.30
2015,08,03,15,25,25.30
2015,08,03,15,26,25.30
2015,08,03,15,27,25.30
2015,08,03,15,28,25.30
2015,08,03,15,29,25.30
2015,08,03,15,30,25.20
2015,08,03,15,31,25.10
2015,08,03,15,32,25.00
2015,08,03,15,33,24.80
2015,08,03,15,34,24.80
2015,08,03,15,35,24.80
2015,08,03,15,36,24.80
2015,08,03,15,37,24.80
2015,08,03,15,38,24.90
2015,08,03,15,39,24.90
2015,08,03,15,40,24.90
2015,08,03,15,41,25.00
2015,08,03,15,42,25.10
2015,08,03,15,43,25.10
2015,08,03,15,44,25.10
2015,08,03,15,45,25.10
2015,08,03,15,46,25.10
2015,08,03,15,47,25.10
2015,08,03,15,48,25.10
2015,08,03,15,49,25.10
2015,08,03,15,50,25.00
2015,08,03,15,51,25.10
2015,08,03,15,52,25.00
2015,08,03,15,53,24.90
2015,08,03,15,54,24.90
2015,08,03,15,55,24.90
2015,08,03,15,56,24.80
2015,08,03,15,57,24.80
2015,08,03,15,58,24.80
2015,08,03,15,59,24.80
2015,08,03,16,00,24.80
2015,08,03,16,01,24.80
2015,08,03,16,02,24.80
2015,08,03,16,03,24.80
2015,08,03,16,04,24.90
2015,08,03,16,05,24.90
2015,08,03,16,06,25.00
2015,08,03,16,07,25.10
2015,08,03,16,08,25.10
2015,08,03,16,09,25.20
2015,08,03,16,10,25.20
2015,08,03,16,11,25.20
2015,08,03,16,12,25.20
2015,08,03,16,13,25.30
2015,08,03,16,14,25.30
2015,08,03,16,15,25.40
2015,08,03,16,16,25.30
2015,08,03,16,17,25.30
2015,08,03,16,18,25.30
2015,08,03,16,19,25.30
2015,08,03,16,20,25.30
2015,08,03,16,21,25.30
2015,08,03,16,22,25.30
2015,08,03,16,23,25.30
2015,08,03,16,24,25.30
2015,08,03,16,25,25.30
2015,08,03,16,26,25.30
2015,08,03,16,27,25.20
2015,08,03,16,28,25.20
2015,08,03,16,29,25.10
2015,08,03,16,30,25.00
2015,08,03,16,31,25.00
2015,08,03,16,32,25.00
2015,08,03,16,33,25.00
2015,08,03,16,34,25.00
2015,08,03,16,35,25.10
2015,08,03,16,36,25.20
2015,08,03,16,37,25.20
2015,08,03,16,38,25.20
2015,08,03,16,39,25.20
2015,08,03,16,40,25.20
2015,08,03,16,41,25.30
2015,08,03,16,42,25.30
2015,08,03,16,43,25.20
2015,08,03,16,44,25.20
2015,08,03,16,45,25.30
2015,08,03,16,46,25.30
2015,08,03,16,47,25.30
2015,08,03,16,48,25.30
2015,08,03,16,49,25.20
2015,08,03,16,51,25.20
2015,08,03,16,52,25.20
2015,08,03,16,53,25.20
2015,08,03,16,54,25.30
2015,08,03,16,55,25.30
2015,08,03,16,56,25.40
2015,08,03,16,57,25.40
2015,08,03,16,58,25.40
2015,08,03,16,59,25.40
2015,08,03,17,00,25.40
2015,08,03,17,01,25.40
2015,08,03,17,02,25.40
2015,08,03,17,03,25.60
2015,08,03,17,04,25.60
2015,08,03,17,05,25.60
2015,08,03,17,06,25.60
2015,08,03,17,07,25.50
2015,08,03,17,08,25.50
2015,08,03,17,09,25.40
2015,08,03,17,10,25.40
2015,08,03,17,11,25.30
2015,08,03,17,12,25.30
2015,08,03,17,13,25.30
2015,08,03,17,14,25.30
2015,08,03,17,15,25.40
2015,08,03,17,16,25.30
2015,08,03,17,17,25.30
2015,08,03,17,18,25.20
2015,08,03,17,19,25.20
2015,08,03,17,20,25.10
2015,08,03,17,21,25.10
2015,08,03,17,22,25.10
2015,08,03,17,23,25.00